CCA225 EGKK-ZBAD

Flight info

Callsign CCA225
Flight time N/A
Altitude 41000
Route ODVIK Y311 DVR L9 KONAN UL607 KOK M150 PITES NOMBO Y161 RIDAR Z98 WLD T702 BADIT SASAL MAVIR NEKUL PETOS NEDSI T343 UDROS UM859 KARDE UN644 ROLIN N644 LAGAS M747 SUBUT T916 PIGAL M610 RULAD A343 POSOT B215 FKG W188 LIKMI W270 DKO W64 ELAPU ELAPU5L
Aircraft B77W/H-SDE1E2E3FGHIJ2J3J4J5M1RWXY/LB1D1

Departure

Time 2026-05-05 16:44
Airport London Gatwick Airport (EGKK)

Arrival

Time N/A
Airport Beijing Daxing International Airport (ZBAD)
Time Latitude Longitude Altitude Speed Heading
2026-05-05 16:06 51.15539 -0.17179 198 ft 0 kts 135°
2026-05-05 16:29 51.15542 -0.17184 198 ft 2 kts 135°
2026-05-05 16:29 51.15552 -0.17200 198 ft 2 kts 135°
2026-05-05 16:30 51.15562 -0.17217 198 ft 1 kts 135°
2026-05-05 16:30 51.15572 -0.17233 199 ft 2 kts 135°
2026-05-05 16:30 51.15583 -0.17249 199 ft 2 kts 150°
2026-05-05 16:30 51.15596 -0.17253 200 ft 2 kts 191°
2026-05-05 16:31 51.15609 -0.17244 200 ft 2 kts 227°
2026-05-05 16:31 51.15615 -0.17229 200 ft 0 kts 256°
2026-05-05 16:31 51.15615 -0.17223 201 ft 0 kts 257°
2026-05-05 16:35 51.15615 -0.17224 200 ft 0 kts 257°
2026-05-05 16:35 51.15611 -0.17245 200 ft 5 kts 248°
2026-05-05 16:35 51.15561 -0.17306 200 ft 13 kts 189°
2026-05-05 16:35 51.15457 -0.17285 197 ft 17 kts 171°
2026-05-05 16:36 51.15329 -0.17287 192 ft 19 kts 236°
2026-05-05 16:36 51.15302 -0.17453 197 ft 13 kts 255°
2026-05-05 16:36 51.15276 -0.17614 199 ft 19 kts 256°
2026-05-05 16:36 51.15237 -0.17877 201 ft 29 kts 256°
2026-05-05 16:37 51.15194 -0.18199 199 ft 29 kts 259°
2026-05-05 16:37 51.15155 -0.18503 202 ft 27 kts 255°
2026-05-05 16:37 51.15117 -0.18807 202 ft 28 kts 257°
2026-05-05 16:37 51.15073 -0.19111 201 ft 29 kts 259°
2026-05-05 16:38 51.15029 -0.19431 199 ft 30 kts 248°
2026-05-05 16:38 51.14992 -0.19752 201 ft 28 kts 256°
2026-05-05 16:38 51.14951 -0.20056 202 ft 27 kts 259°
2026-05-05 16:38 51.14910 -0.20337 204 ft 25 kts 255°
2026-05-05 16:39 51.14872 -0.20613 202 ft 25 kts 257°
2026-05-05 16:39 51.14844 -0.20794 203 ft 0 kts 257°
2026-05-05 16:39 51.14843 -0.20797 203 ft 1 kts 258°
2026-05-05 16:40 51.14836 -0.20854 203 ft 9 kts 259°
2026-05-05 16:40 51.14816 -0.21002 205 ft 17 kts 257°
2026-05-05 16:40 51.14776 -0.21241 206 ft 26 kts 250°
2026-05-05 16:40 51.14666 -0.21358 209 ft 22 kts 147°
2026-05-05 16:41 51.14581 -0.21294 208 ft 0 kts 154°
2026-05-05 16:43 51.14578 -0.21291 208 ft 3 kts 152°
2026-05-05 16:43 51.14534 -0.21215 207 ft 12 kts 116°
2026-05-05 16:43 51.14550 -0.20942 204 ft 55 kts 76°
2026-05-05 16:43 51.14688 -0.19933 201 ft 127 kts 78°
2026-05-05 16:44 51.14922 -0.18246 203 ft 186 kts 78°
2026-05-05 16:44 51.15197 -0.16093 718 ft 199 kts 79°
2026-05-05 16:44 51.15429 -0.13887 1404 ft 213 kts 81°
2026-05-05 16:44 51.15502 -0.11906 2997 ft 168 kts 86°
2026-05-05 16:45 51.15713 -0.10045 3156 ft 177 kts 57°
2026-05-05 16:45 51.16335 -0.08244 3313 ft 192 kts 71°
2026-05-05 16:45 51.16649 -0.06017 3229 ft 225 kts 77°
2026-05-05 16:45 51.16876 -0.03445 3545 ft 238 kts 87°
2026-05-05 16:46 51.16851 -0.00920 4529 ft 218 kts 89°
2026-05-05 16:46 51.16808 0.01331 5381 ft 201 kts 88°
2026-05-05 16:46 51.16769 0.03608 5590 ft 216 kts 89°
2026-05-05 16:46 51.16726 0.06145 5604 ft 240 kts 89°
2026-05-05 16:47 51.16676 0.08857 5951 ft 251 kts 89°
2026-05-05 16:47 51.16623 0.11717 5990 ft 265 kts 89°
2026-05-05 16:47 51.16566 0.14673 6022 ft 267 kts 89°
2026-05-05 16:47 51.16538 0.17761 6044 ft 289 kts 87°
2026-05-05 16:48 51.16559 0.21107 6060 ft 313 kts 87°
2026-05-05 16:48 51.16575 0.24694 6095 ft 337 kts 88°
2026-05-05 16:48 51.16584 0.28512 6106 ft 359 kts 88°
2026-05-05 16:48 51.16591 0.32631 6135 ft 377 kts 88°
2026-05-05 16:49 51.16594 0.36893 6209 ft 385 kts 88°
2026-05-05 16:49 51.16595 0.40949 6954 ft 365 kts 88°
2026-05-05 16:49 51.16602 0.44937 7937 ft 358 kts 88°
2026-05-05 16:49 51.16598 0.48938 8939 ft 365 kts 89°
2026-05-05 16:50 51.16589 0.52989 9943 ft 370 kts 89°
2026-05-05 16:50 51.16582 0.57057 10949 ft 374 kts 89°
2026-05-05 16:50 51.16575 0.61158 11946 ft 378 kts 89°
2026-05-05 16:50 51.16568 0.65355 12971 ft 380 kts 90°
2026-05-05 16:51 51.16559 0.69508 13956 ft 382 kts 90°
2026-05-05 16:51 51.16550 0.73769 14960 ft 384 kts 90°
2026-05-05 16:51 51.16539 0.77993 15969 ft 384 kts 90°
2026-05-05 16:51 51.16527 0.82226 16972 ft 384 kts 90°
2026-05-05 16:52 51.16514 0.86405 17956 ft 383 kts 90°
2026-05-05 16:52 51.16500 0.90586 18963 ft 381 kts 90°
2026-05-05 16:52 51.16484 0.94809 19982 ft 378 kts 90°
2026-05-05 16:52 51.16467 0.98947 20985 ft 375 kts 90°
2026-05-05 16:53 51.16450 1.03047 21989 ft 369 kts 90°
2026-05-05 16:53 51.16431 1.07035 22982 ft 363 kts 90°
2026-05-05 16:53 51.16412 1.10986 23991 ft 355 kts 90°
2026-05-05 16:53 51.16391 1.14839 25020 ft 345 kts 91°
2026-05-05 16:54 51.16371 1.18535 26047 ft 332 kts 91°
2026-05-05 16:54 51.16351 1.22104 27064 ft 316 kts 92°
2026-05-05 16:54 51.16331 1.25480 27936 ft 301 kts 92°
2026-05-05 16:54 51.16309 1.28794 28237 ft 304 kts 92°
2026-05-05 16:55 51.16282 1.32259 28042 ft 322 kts 92°
2026-05-05 16:55 51.16253 1.35895 27918 ft 338 kts 92°
2026-05-05 16:55 51.16136 1.39659 28331 ft 336 kts 97°
2026-05-05 16:55 51.15943 1.43221 29170 ft 320 kts 97°
2026-05-05 16:56 51.15761 1.46663 29933 ft 306 kts 97°
2026-05-05 16:56 51.15591 1.50010 30140 ft 309 kts 97°
2026-05-05 16:56 51.15416 1.53488 29845 ft 327 kts 97°
2026-05-05 16:56 51.15234 1.57170 29642 ft 341 kts 97°
2026-05-05 16:57 51.15051 1.60943 29964 ft 340 kts 97°
2026-05-05 16:57 51.14872 1.64637 30742 ft 324 kts 97°
2026-05-05 16:57 51.14705 1.68063 31391 ft 311 kts 98°
2026-05-05 16:57 51.14533 1.71483 31497 ft 315 kts 98°
2026-05-05 16:58 51.14350 1.75049 31154 ft 332 kts 98°
2026-05-05 16:58 51.14158 1.78819 30910 ft 346 kts 98°
2026-05-05 16:58 51.13965 1.82627 31206 ft 343 kts 98°
2026-05-05 16:58 51.13781 1.86282 31890 ft 328 kts 98°
2026-05-05 16:59 51.13603 1.89802 32412 ft 318 kts 98°
2026-05-05 16:59 51.13418 1.93356 32417 ft 323 kts 98°
2026-05-05 16:59 51.13225 1.96985 32050 ft 340 kts 98°
2026-05-05 16:59 51.13023 2.00800 31863 ft 350 kts 98°
2026-05-05 17:00 51.12824 2.04615 32193 ft 345 kts 98°
2026-05-05 17:00 51.12632 2.08298 32818 ft 331 kts 98°
2026-05-05 17:00 51.12440 2.11924 33200 ft 324 kts 98°
2026-05-05 17:00 51.12249 2.15462 33088 ft 331 kts 98°